| time (UTC) | temp F | wind direction | speed MPH | gust MPH | rain 1hr in | rain 24hr in | rain mn in | humidity % | barometer mb |
| 20260906231529 | 0 | 259 | 0.0 | 0.0 | 0.00 | 0.00 | 0.00 | 1002.9 | |
| 20260906230026 | 0 | 259 | 0.0 | 0.0 | 0.00 | 0.00 | 0.00 | 1003.0 | |
| 20260906224519 | 0 | 259 | 0.0 | 0.0 | 0.00 | 0.00 | 0.00 | 1003.0 | |
| 20260906223030 | 0 | 259 | 0.0 | 0.0 | 0.00 | 0.00 | 0.00 | 1003.2 | |
| 20260906221526 | 0 | 259 | 0.0 | 0.0 | 0.00 | 0.00 | 0.00 | 1003.3 | |
| 20260906220021 | 0 | 259 | 0.0 | 0.0 | 0.00 | 0.00 | 0.00 | 1003.4 | |
| 20260906214517 | 0 | 259 | 0.0 | 0.0 | 0.00 | 0.00 | 0.00 | 1003.5 | |
| 20260906213012 | 0 | 258 | 0.0 | 0.0 | 0.00 | 0.00 | 0.00 | 1003.5 | |
| 20260906211508 | 0 | 258 | 0.0 | 0.0 | 0.00 | 0.00 | 0.00 | 1003.3 | |
| 20260906210002 | 0 | 261 | 0.0 | 0.0 | 0.00 | 0.00 | 0.00 | 1003.0 | |
| 20260906204600 | 0 | 252 | 0.0 | 0.0 | 0.00 | 0.00 | 0.00 | 1002.9 | |
| 20260906203053 | 0 | 252 | 0.0 | 0.0 | 0.00 | 0.00 | 0.00 | 1002.9 | |
| 20260906203007 | 0 | 252 | 0.0 | 0.0 | 0.00 | 0.00 | 0.00 | 1003.0 | |
| 20260906201558 | 0 | 251 | 0.0 | 0.0 | 0.00 | 0.00 | 0.00 | 1003.4 | |
| 20260906200019 | 0 | 251 | 0.0 | 5.0 | 0.00 | 0.00 | 0.00 | 1003.2 | |
| 20260906193020 | 0 | 258 | 1.0 | 8.0 | 0.00 | 0.00 | 0.00 | 1003.6 | |
| 20260906191532 | 0 | 259 | 4.0 | 12.0 | 0.00 | 0.00 | 0.00 | 1003.8 | |
| 20260906190033 | 0 | 261 | 3.0 | 12.0 | 0.00 | 0.00 | 0.00 | 1003.6 | |
| 20260906184548 | 0 | 264 | 6.0 | 14.0 | 0.00 | 0.00 | 0.00 | 1003.6 | |
| 20260906184527 | 0 | 264 | 7.0 | 14.0 | 0.00 | 0.00 | 0.00 | 1003.6 | |
| 20260906183028 | 0 | 265 | 7.0 | 13.0 | 0.00 | 0.00 | 0.00 | 1003.6 | |
| 20260906181551 | 0 | 267 | 7.0 | 15.0 | 0.00 | 0.00 | 0.00 | 1003.6 | |
| 20260906180029 | 0 | 261 | 8.0 | 19.0 | 0.00 | 0.00 | 0.00 | 1003.5 | |
| 20260906174543 | 0 | 261 | 10.0 | 19.0 | 0.00 | 0.00 | 0.00 | 1003.3 | |
| 20260906173016 | 0 | 254 | 12.0 | 23.0 | 0.00 | 0.00 | 0.00 | 1003.6 | |
| 20260906171517 | 0 | 261 | 11.0 | 21.0 | 0.00 | 0.00 | 0.00 | 1003.6 | |
| 20260906170106 | 0 | 255 | 10.0 | 17.0 | 0.00 | 0.00 | 0.00 | 1003.9 | |
| 20260906164557 | 0 | 246 | 7.0 | 16.0 | 0.00 | 0.00 | 0.00 | 1003.9 | |
| 20260906163009 | 0 | 243 | 2.0 | 12.0 | 0.00 | 0.00 | 0.00 | 1003.7 | |
| 20260906161553 | 0 | 242 | 0.0 | 12.0 | 0.00 | 0.00 | 0.00 | 1003.8 | |
| 20260906160024 | 0 | 243 | 0.0 | 10.0 | 0.00 | 0.00 | 0.00 | 1003.4 | |
| 20260906154559 | 0 | 233 | 0.0 | 8.0 | 0.00 | 0.00 | 0.00 | 1003.2 | |
| 20260906153001 | 0 | 231 | 0.0 | 10.0 | 0.00 | 0.00 | 0.00 | 1003.3 | |
| 20260906151544 | 0 | 225 | 0.0 | 8.0 | 0.00 | 0.00 | 0.00 | 1003.5 | |
| 20260906150013 | 0 | 231 | 0.0 | 0.0 | 0.00 | 0.00 | 0.00 | 1004.0 | |
| 20260906144557 | 0 | 235 | 0.0 | 9.0 | 0.00 | 0.00 | 0.00 | 1004.2 | |
| 20260906143032 | 0 | 242 | 0.0 | 0.0 | 0.00 | 0.00 | 0.00 | 1004.3 | |
| 20260906141544 | 0 | 243 | 0.0 | 0.0 | 0.00 | 0.00 | 0.00 | 1004.5 | |
| 20260906140042 | 0 | 243 | 0.0 | 0.0 | 0.00 | 0.00 | 0.00 | 1004.6 | |
| 20260906134551 | 0 | 245 | 0.0 | 0.0 | 0.00 | 0.00 | 0.00 | 1004.9 | |
| 20260906133048 | 0 | 242 | 0.0 | 0.0 | 0.00 | 0.00 | 0.00 | 1004.9 | |
| 20260906131539 | 0 | 242 | 0.0 | 0.0 | 0.00 | 0.00 | 0.00 | 1005.0 | |
| 20260906130034 | 0 | 233 | 0.0 | 0.0 | 0.00 | 0.00 | 0.00 | 1005.2 | |
| 20260906124538 | 0 | 233 | 0.0 | 0.0 | 0.00 | 0.00 | 0.00 | 1005.5 | |
| 20260906123013 | 0 | 230 | 0.0 | 0.0 | 0.00 | 0.00 | 0.00 | 1005.6 | |
| 20260906121553 | 0 | 242 | 0.0 | 8.0 | 0.00 | 0.00 | 0.00 | 1005.7 | |
| 20260906121510 | 0 | 243 | 0.0 | 8.0 | 0.00 | 0.00 | 0.00 | 1005.7 | |
| 20260906120017 | 0 | 242 | 0.0 | 6.0 | 0.00 | 0.00 | 0.00 | 1005.9 | |
| 20260906113023 | 0 | 242 | 0.0 | 7.0 | 0.00 | 0.00 | 0.00 | 1006.1 | |
| 20260906111550 | 0 | 243 | 0.0 | 8.0 | 0.00 | 0.00 | 0.00 | 1006.3 | |
| 20260906110039 | 0 | 243 | 0.0 | 7.0 | 0.00 | 0.00 | 0.00 | 1006.7 | |
| 20260906104551 | 0 | 243 | 0.0 | 8.0 | 0.00 | 0.00 | 0.00 | 1006.8 | |
| 20260906101528 | 0 | 237 | 6.0 | 12.0 | 0.00 | 0.00 | 0.00 | 1007.3 | |
| 20260906100047 | 0 | 236 | 4.0 | 10.0 | 0.00 | 0.00 | 0.00 | 1007.5 | |
| 20260906094550 | 0 | 236 | 3.0 | 10.0 | 0.00 | 0.00 | 0.00 | 1007.5 | |
| 20260906093031 | 0 | 236 | 2.0 | 8.0 | 0.00 | 0.00 | 0.00 | 1007.5 | |
| 20260906091559 | 0 | 236 | 1.0 | 7.0 | 0.00 | 0.00 | 0.00 | 1007.6 | |
| 20260906091531 | 0 | 236 | 0.0 | 6.0 | 0.00 | 0.00 | 0.00 | 1007.6 | |
| 20260906090035 | 0 | 235 | 0.0 | 5.0 | 0.00 | 0.00 | 0.00 | 1007.8 | |
| 20260906084543 | 0 | 235 | 0.0 | 5.0 | 0.00 | 0.00 | 0.00 | 1008.1 | |
| 20260906083050 | 0 | 234 | 0.0 | 3.0 | 0.00 | 0.00 | 0.00 | 1008.5 | |
| 20260906081600 | 0 | 240 | 0.0 | 1.0 | 0.00 | 0.00 | 0.00 | 1008.6 | |
| 20260906080011 | 0 | 242 | 0.0 | 3.0 | 0.00 | 0.00 | 0.00 | 1008.8 | |
| 20260906074525 | 0 | 242 | 0.0 | 4.0 | 0.00 | 0.00 | 0.00 | 1009.0 | |
| 20260906073058 | 0 | 242 | 0.0 | 5.0 | 0.00 | 0.00 | 0.00 | 1009.1 | |
| 20260906071549 | 0 | 242 | 0.0 | 6.0 | 0.00 | 0.00 | 0.00 | 1009.3 | |
| 20260906070042 | 0 | 242 | 1.0 | 7.0 | 0.00 | 0.00 | 0.00 | 1009.3 | |
| 20260906064541 | 0 | 242 | 1.0 | 6.0 | 0.00 | 0.00 | 0.00 | 1009.2 | |
| 20260906063055 | 0 | 0.0 | 0.0 | 0.00 | 0.00 | 0.00 | 1009.2 | ||
| 20260906061539 | 0 | 0.0 | 0.0 | 0.00 | 0.00 | 0.00 | 1009.1 | ||
| 20260906060043 | 0 | 0.0 | 0.0 | 0.00 | 0.00 | 0.00 | 1009.1 | ||
| 20260906054543 | 0 | 0.0 | 0.0 | 0.00 | 0.00 | 0.00 | 1009.1 | ||
| 20260906051605 | 0 | 0.0 | 0.0 | 0.00 | 0.00 | 0.00 | 1009.2 | ||
| 20260906050056 | 0 | 0.0 | 0.0 | 0.00 | 0.00 | 0.00 | 1009.3 | ||
| 20260906044523 | 0 | 0.0 | 0.0 | 0.00 | 0.00 | 0.00 | 1009.3 | ||
| 20260906043035 | 0 | 0.0 | 0.0 | 0.00 | 0.00 | 0.00 | 1009.4 | ||
| 20260906040053 | 0 | 0.0 | 0.0 | 0.00 | 0.00 | 0.00 | 1009.6 | ||
| 20260906033024 | 0 | 0.0 | 0.0 | 0.00 | 0.00 | 0.00 | 1010.1 | ||
| 20260906031508 | 0 | 0.0 | 0.0 | 0.00 | 0.00 | 0.00 | 1010.3 | ||
| 20260906024544 | 0 | 0.0 | 0.0 | 0.00 | 0.00 | 0.00 | 1010.6 | ||
| 20260906021525 | 0 | 0.0 | 0.0 | 0.00 | 0.00 | 0.00 | 1011.0 | ||
| 20260906020030 | 0 | 0.0 | 0.0 | 0.00 | 0.00 | 0.00 | 1011.1 | ||
| 20260906020006 | 0 | 0.0 | 0.0 | 0.00 | 0.00 | 0.00 | 1011.0 | ||
| 20260906013013 | 0 | 0.0 | 0.0 | 0.00 | 0.00 | 0.00 | 1011.4 | ||
| 20260906010051 | 0 | 0.0 | 0.0 | 0.00 | 0.00 | 0.00 | 1011.8 | ||
| 20260906004555 | 0 | 0.0 | 0.0 | 0.00 | 0.00 | 0.00 | 1012.0 |